When you browse on this site, cookies collect data to enhance your experience and personalize the content and advertising you see.
Visit our Privacy Policy to learn more. By continuing to use the site, you agree to this use of cookies and data.

Hourly Weather Binningen

Today, 28 September, Monday

Time Temperature Precipitation Wind Pressure Humidity
00:00 +8°C° 0 mm 1 mps 730 mmHg 89%
01:00 +6°C° 0 mm 0 mps 731 mmHg 91%
02:00 +6°C° 0 mm 0 mps 731 mmHg 91%
03:00 +6°C° 0 mm 0 mps 731 mmHg 91%
04:00 +7°C° 0 mm 1 mps 731 mmHg 92%
05:00 +7°C° 0 mm 1 mps 731 mmHg 92%
06:00 +7°C° 0 mm 1 mps 732 mmHg 92%
07:00 +7°C° 0 mm 1 mps 732 mmHg 91%
08:00 +8°C° 0 mm 0 mps 732 mmHg 85%
09:00 +10°C° 0 mm 0 mps 732 mmHg 78%
10:00 +12°C° 0 mm 0 mps 732 mmHg 72%
11:00 +14°C° 0 mm 1 mps 732 mmHg 67%
12:00 +16°C° 0 mm 1 mps 732 mmHg 62%
13:00 +18°C° 0 mm 1 mps 733 mmHg 57%
14:00 +17°C° 0 mm 2 mps 733 mmHg 60%
15:00 +16°C° 0 mm 2 mps 733 mmHg 62%
16:00 +16°C° 0 mm 2 mps 733 mmHg 65%
17:00 +15°C° 0.1 mm 2 mps 733 mmHg 73%
18:00 +13°C° 0.1 mm 2 mps 734 mmHg 81%
19:00 +12°C° 0.1 mm 2 mps 734 mmHg 88%
20:00 +12°C° 0.2 mm 2 mps 735 mmHg 90%
21:00 +12°C° 0.2 mm 1 mps 735 mmHg 92%
22:00 +12°C° 0.2 mm 1 mps 735 mmHg 94%
23:00 +12°C° 0.6 mm 1 mps 736 mmHg 94%

Tomorrow, 29 September, Tuesday

Time Temperature Precipitation Wind Pressure Humidity
00:00 +12°C° 0.6 mm 2 mps 736 mmHg 95%
01:00 +12°C° 0.6 mm 2 mps 736 mmHg 95%
02:00 +12°C° 1 mm 2 mps 736 mmHg 95%
03:00 +11°C° 1 mm 3 mps 736 mmHg 95%
04:00 +11°C° 1 mm 3 mps 736 mmHg 95%
05:00 +10°C° 0.6 mm 3 mps 736 mmHg 94%
06:00 +10°C° 0.6 mm 3 mps 737 mmHg 94%
07:00 +10°C° 0.6 mm 2 mps 737 mmHg 93%
08:00 +10°C° 0.2 mm 2 mps 737 mmHg 93%
09:00 +10°C° 0.2 mm 2 mps 737 mmHg 92%
10:00 +12°C° 0.2 mm 2 mps 737 mmHg 92%
11:00 +12°C° 0 mm 1 mps 738 mmHg 91%
12:00 +12°C° 0 mm 1 mps 738 mmHg 90%
13:00 +13°C° 0 mm 1 mps 738 mmHg 89%
14:00 +13°C° 0 mm 1 mps 738 mmHg 87%
15:00 +14°C° 0 mm 1 mps 738 mmHg 84%
16:00 +14°C° 0 mm 1 mps 738 mmHg 82%
17:00 +13°C° 0 mm 1 mps 738 mmHg 85%
18:00 +12°C° 0 mm 1 mps 738 mmHg 89%
19:00 +10°C° 0 mm 0 mps 738 mmHg 92%
20:00 +10°C° 0 mm 0 mps 738 mmHg 92%
21:00 +10°C° 0 mm 0 mps 738 mmHg 92%
22:00 +9°C° 0 mm 0 mps 738 mmHg 92%
23:00 +9°C° 0 mm 0 mps 738 mmHg 92%

Day after tomorrow, 30 September, Wednesday

Time Temperature Precipitation Wind Pressure Humidity
00:00 +9°C° 0 mm 0 mps 737 mmHg 91%
01:00 +9°C° 0 mm 0 mps 737 mmHg 91%
02:00 +9°C° 0 mm 0 mps 737 mmHg 91%
03:00 +9°C° 0 mm 0 mps 737 mmHg 91%
04:00 +9°C° 0 mm 0 mps 736 mmHg 91%
05:00 +9°C° 0 mm 0 mps 736 mmHg 91%
06:00 +9°C° 0 mm 0 mps 736 mmHg 90%
07:00 +9°C° 0 mm 0 mps 736 mmHg 90%
08:00 +11°C° 0 mm 0 mps 736 mmHg 84%
09:00 +14°C° 0 mm 1 mps 736 mmHg 78%
10:00 +16°C° 0 mm 1 mps 736 mmHg 71%
11:00 +18°C° 0 mm 1 mps 736 mmHg 67%
12:00 +20°C° 0 mm 1 mps 735 mmHg 62%
13:00 +21°C° 0 mm 1 mps 735 mmHg 58%
14:00 +21°C° 0 mm 1 mps 734 mmHg 59%
15:00 +21°C° 0 mm 1 mps 734 mmHg 60%
16:00 +21°C° 0 mm 1 mps 734 mmHg 61%
17:00 +19°C° 0 mm 1 mps 734 mmHg 69%
18:00 +16°C° 0 mm 1 mps 733 mmHg 77%
19:00 +14°C° 0 mm 1 mps 733 mmHg 85%
20:00 +13°C° 0 mm 1 mps 733 mmHg 86%
21:00 +12°C° 0 mm 1 mps 733 mmHg 87%
22:00 +12°C° 0 mm 1 mps 733 mmHg 88%
23:00 +12°C° 0 mm 1 mps 732 mmHg 88%

1 October, Thursday

Time Temperature Precipitation Wind Pressure Humidity
00:00 +11°C° 0 mm 1 mps 732 mmHg 88%
01:00 +11°C° 0 mm 1 mps 731 mmHg 89%
02:00 +11°C° 0 mm 1 mps 731 mmHg 89%
03:00 +11°C° 0 mm 1 mps 730 mmHg 90%
04:00 +11°C° 0 mm 1 mps 730 mmHg 90%
05:00 +11°C° 0 mm 1 mps 730 mmHg 90%
06:00 +11°C° 0 mm 1 mps 729 mmHg 90%
07:00 +11°C° 0 mm 1 mps 729 mmHg 89%
08:00 +13°C° 0 mm 1 mps 729 mmHg 82%
09:00 +15°C° 0 mm 1 mps 729 mmHg 76%
10:00 +18°C° 0 mm 1 mps 728 mmHg 69%
11:00 +19°C° 0 mm 1 mps 728 mmHg 66%
12:00 +19°C° 0 mm 2 mps 728 mmHg 64%
13:00 +19°C° 0 mm 2 mps 728 mmHg 62%
14:00 +18°C° 0.1 mm 2 mps 728 mmHg 68%
15:00 +17°C° 0.1 mm 2 mps 727 mmHg 74%
16:00 +16°C° 0.1 mm 2 mps 727 mmHg 81%
17:00 +15°C° 0.1 mm 2 mps 727 mmHg 84%
18:00 +14°C° 0.1 mm 1 mps 727 mmHg 87%
19:00 +14°C° 0.1 mm 1 mps 727 mmHg 90%
20:00 +14°C° 0.7 mm 1 mps 727 mmHg 91%
21:00 +14°C° 0.7 mm 2 mps 727 mmHg 92%
22:00 +14°C° 0.7 mm 2 mps 727 mmHg 92%
23:00 +13°C° 0.7 mm 2 mps 727 mmHg 92%

2 October, Friday

Time Temperature Precipitation Wind Pressure Humidity
00:00 +13°C° 0.7 mm 2 mps 727 mmHg 92%
01:00 +13°C° 0.7 mm 2 mps 726 mmHg 92%
02:00 +12°C° 0.3 mm 2 mps 726 mmHg 92%
03:00 +12°C° 0.3 mm 1 mps 726 mmHg 91%
04:00 +12°C° 0.3 mm 1 mps 725 mmHg 91%
05:00 +12°C° 0 mm 1 mps 725 mmHg 92%
06:00 +11°C° 0 mm 1 mps 724 mmHg 92%
07:00 +11°C° 0 mm 1 mps 724 mmHg 93%
08:00 +12°C° 0 mm 2 mps 723 mmHg 89%
09:00 +14°C° 0 mm 2 mps 723 mmHg 86%
10:00 +15°C° 0 mm 2 mps 722 mmHg 82%
11:00 +15°C° 0.2 mm 2 mps 722 mmHg 82%
12:00 +15°C° 0.2 mm 2 mps 721 mmHg 82%
13:00 +15°C° 0.2 mm 2 mps 721 mmHg 82%
14:00 +15°C° 1.1 mm 2 mps 721 mmHg 86%
15:00 +14°C° 1.1 mm 2 mps 721 mmHg 89%
16:00 +14°C° 1.1 mm 2 mps 720 mmHg 92%
17:00 +14°C° 0.3 mm 2 mps 720 mmHg 93%
18:00 +14°C° 0.3 mm 2 mps 720 mmHg 93%
19:00 +13°C° 0.3 mm 1 mps 720 mmHg 94%
20:00 +13°C° 0.1 mm 2 mps 719 mmHg 93%
21:00 +13°C° 0.1 mm 2 mps 718 mmHg 92%
22:00 +13°C° 0.1 mm 2 mps 718 mmHg 92%
23:00 +13°C° 0 mm 2 mps 717 mmHg 92%

3 October, Saturday

Time Temperature Precipitation Wind Pressure Humidity
00:00 +12°C° 0 mm 2 mps 716 mmHg 92%
01:00 +12°C° 0 mm 2 mps 715 mmHg 92%
02:00 +12°C° 0 mm 2 mps 714 mmHg 93%
03:00 +12°C° 0 mm 1 mps 714 mmHg 93%
04:00 +11°C° 0 mm 1 mps 713 mmHg 94%
05:00 +11°C° 0 mm 1 mps 712 mmHg 94%
06:00 +10°C° 0 mm 0 mps 712 mmHg 94%
07:00 +10°C° 0 mm 0 mps 712 mmHg 93%
08:00 +12°C° 1.1 mm 1 mps 712 mmHg 93%
09:00 +11°C° 1.1 mm 3 mps 713 mmHg 93%
10:00 +11°C° 1.1 mm 4 mps 713 mmHg 93%
11:00 +11°C° 2 mm 4 mps 714 mmHg 92%
12:00 +10°C° 2 mm 4 mps 715 mmHg 91%
13:00 +10°C° 2 mm 4 mps 715 mmHg 90%
14:00 +10°C° 0.8 mm 4 mps 716 mmHg 89%
15:00 +10°C° 0.8 mm 3 mps 716 mmHg 87%
16:00 +10°C° 0.8 mm 3 mps 717 mmHg 86%
17:00 +9°C° 0.2 mm 3 mps 717 mmHg 87%
18:00 +8°C° 0.2 mm 2 mps 718 mmHg 88%
19:00 +8°C° 0.2 mm 2 mps 718 mmHg 89%
20:00 +8°C° 0.2 mm 2 mps 719 mmHg 90%
21:00 +8°C° 0.2 mm 2 mps 719 mmHg 91%
22:00 +8°C° 0.2 mm 2 mps 719 mmHg 92%
23:00 +7°C° 0.2 mm 2 mps 719 mmHg 93%
Show more